Buckland, AK

12:40 AM AKDT on August 24, 2017 (GMT -0800)
Buckland

Weather History for PABL - February, 2013

Change the Weather History Date:

Wednesday, February 27, 2013

  Actual Average (PASK) Record (PASK)
Temperature  
Mean Temperature -14 °F -  
Max Temperature -11 °F 5 °F 33 °F (2015)
Min Temperature -18 °F -3 °F -31 °F (2007)
Degree Days  
Heating Degree Days 80    
Moisture  
Dew Point -22 °F    
Average Humidity 75    
Maximum Humidity 100    
Minimum Humidity 48    
Precipitation  
Precipitation 0.00 in - - ()
Sea Level Pressure  
Sea Level Pressure 29.57 in    
Wind  
Wind Speed 10 mph (NNW)    
Max Wind Speed 17 mph    
Max Gust Speed -    
Visibility 10 miles    
Events      
Averages and records for this station are not official NWS values.
T = Trace of Precipitation, MM = Missing Value Source: NWS Daily Summary

Daily Weather History Graph

Daily Weather History Graph

Search for Another Location

Airport or City:

Trip Planner

Search our weather history database for the weather conditions in past years. The results will help you decide how hot, cold, wet, or windy it might be!

Date:

Astronomy

Feb. 27, 2013 Rise Set
Actual Time 9:02 AM AKST 6:53 PM AKST
Civil Twilight 8:10 AM AKST 7:45 PM AKST
Nautical Twilight 7:11 AM AKST 8:44 PM AKST
Astronomical Twilight 6:11 AM AKST 9:45 PM AKST
Moon 10:53 PM AKST (2/27) 8:35 AM AKST (2/27)
Length of Visible Light 11h 34m
Length of Day
9h 50m
Waning Gibbous, 95% of the Moon is Illuminated
Feb 27
Waning Gibbous
Mar 4
Last Quarter
Mar 11
New
Mar 19
First Quarter
Mar 27
Full

Hourly Weather History & Observations

Time (AKST) Temp. Windchill Dew Point Humidity Pressure Visibility Wind Dir Wind Speed Gust Speed Precip Events Conditions
12:16 AM -16.6 °F -40.6 °F -23.8 °F 70% 29.74 in 10.0 mi NNW 15.0 mph - N/A   Unknown
12:36 AM -16.6 °F -41.4 °F -16.6 °F 100% 29.74 in 10.0 mi NNW 16.1 mph - N/A   Unknown
12:56 AM -16.6 °F -39.8 °F -29.2 °F 53% 29.72 in 10.0 mi NNW 13.8 mph - N/A   Unknown
1:16 AM -16.6 °F -42.1 °F -20.2 °F 84% 29.72 in 10.0 mi NW 17.3 mph - N/A   Unknown
1:36 AM -16.6 °F -38.9 °F -16.6 °F 100% 29.71 in 10.0 mi NNW 12.7 mph - N/A   Unknown
1:56 AM -14.8 °F -38.3 °F -27.4 °F 53% 29.71 in 10.0 mi NNW 15.0 mph - N/A   Unknown
2:16 AM -14.8 °F -36.6 °F -16.6 °F 92% 29.70 in 10.0 mi NNW 12.7 mph - N/A   Unknown
2:36 AM -14.8 °F -37.5 °F -16.6 °F 92% 29.69 in 10.0 mi NNW 13.8 mph - N/A   Unknown
2:56 AM -14.8 °F -36.6 °F -29.2 °F 48% 29.68 in 10.0 mi NNW 12.7 mph - N/A   Unknown
3:16 AM -16.6 °F -39.8 °F -23.8 °F 70% 29.68 in 10.0 mi NNW 13.8 mph - N/A   Unknown
3:36 AM -16.6 °F -38.9 °F -18.4 °F 92% 29.68 in 10.0 mi North 12.7 mph - N/A   Unknown
3:56 AM -16.6 °F -39.8 °F -25.6 °F 64% 29.67 in 10.0 mi NNW 13.8 mph - N/A   Unknown
4:16 AM -14.8 °F -38.3 °F -18.4 °F 84% 29.67 in 10.0 mi NNW 15.0 mph - N/A   Unknown
4:36 AM -14.8 °F -38.3 °F -23.8 °F 64% 29.66 in 10.0 mi North 15.0 mph - N/A   Unknown
4:56 AM -16.6 °F -37.9 °F -27.4 °F 58% 29.66 in 10.0 mi North 11.5 mph - N/A   Unknown
5:16 AM -16.6 °F -35.7 °F -20.2 °F 84% 29.65 in 10.0 mi North 9.2 mph - N/A   Unknown
5:36 AM -16.6 °F -37.9 °F -22.0 °F 76% 29.65 in 10.0 mi North 11.5 mph - N/A   Unknown
5:56 AM -16.6 °F -38.9 °F -27.4 °F 58% 29.64 in 10.0 mi North 12.7 mph - N/A   Unknown
6:16 AM -16.6 °F -37.9 °F -20.2 °F 84% 29.64 in 10.0 mi North 11.5 mph - N/A   Unknown
6:36 AM -16.6 °F -40.6 °F -20.2 °F 84% 29.63 in 10.0 mi NNW 15.0 mph - N/A   Unknown
6:56 AM -16.6 °F -36.8 °F -23.8 °F 70% 29.63 in 10.0 mi North 10.4 mph - N/A   Unknown
7:16 AM -18.4 °F -40.2 °F -29.2 °F 58% 29.62 in 10.0 mi NNW 11.5 mph - N/A   Unknown
7:36 AM -18.4 °F -37.9 °F -25.6 °F 70% 29.61 in 10.0 mi NNW 9.2 mph - N/A   Unknown
7:56 AM -18.4 °F -37.9 °F -20.2 °F 91% 29.61 in 10.0 mi NNW 9.2 mph - N/A   Unknown
8:16 AM -18.4 °F -37.9 °F -27.4 °F 63% 29.60 in 10.0 mi NNW 9.2 mph - N/A   Unknown
8:36 AM -18.4 °F -31.4 °F -27.4 °F 63% 29.60 in 10.0 mi NW 4.6 mph - N/A   Unknown
8:56 AM -18.4 °F -41.2 °F -23.8 °F 76% 29.59 in 10.0 mi NNW 12.7 mph - N/A   Unknown
9:16 AM -18.4 °F -41.2 °F -25.6 °F 70% 29.60 in 10.0 mi NW 12.7 mph - N/A   Unknown
9:36 AM -16.6 °F -36.8 °F -27.4 °F 58% 29.59 in 7.0 mi NNW 10.4 mph - N/A   Unknown
9:56 AM -16.6 °F -34.4 °F -20.2 °F 84% 29.60 in 9.0 mi NW 8.1 mph - N/A   Unknown
10:16 AM -18.4 °F -36.6 °F -29.2 °F 58% 29.59 in 10.0 mi NNW 8.1 mph - N/A   Unknown
10:36 AM -18.4 °F -35.1 °F -29.2 °F 58% 29.59 in 10.0 mi North 6.9 mph - N/A   Unknown
10:56 AM -16.6 °F -34.4 °F -22.0 °F 76% 29.58 in 10.0 mi NNW 8.1 mph - N/A   Unknown
11:16 AM -14.8 °F -37.5 °F -14.8 °F 100% 29.57 in 10.0 mi NNW 13.8 mph - N/A   Unknown
11:36 AM -16.6 °F -31.3 °F - N/A% 29.58 in 10.0 mi North 5.8 mph - N/A   Unknown
11:56 AM -16.6 °F -35.7 °F - N/A% 29.58 in 10.0 mi North 9.2 mph - N/A   Unknown
12:16 PM -14.8 °F -27.2 °F - N/A% 29.58 in 10.0 mi North 4.6 mph - N/A   Unknown
12:36 PM -14.8 °F -32.2 °F - N/A% 29.57 in 10.0 mi NNW 8.1 mph - N/A   Unknown
12:56 PM -14.8 °F -27.2 °F - N/A% 29.57 in 10.0 mi NNW 4.6 mph - N/A   Unknown
1:16 PM -14.8 °F -24.8 °F -27.4 °F 53% 29.56 in 10.0 mi North 3.5 mph - N/A   Unknown
1:36 PM -14.8 °F -24.8 °F -18.4 °F 84% 29.56 in 10.0 mi North 3.5 mph - N/A   Unknown
1:56 PM -14.8 °F -27.2 °F -22.0 °F 70% 29.56 in 10.0 mi North 4.6 mph - N/A   Unknown
2:16 PM -14.8 °F -24.8 °F -20.2 °F 77% 29.55 in 10.0 mi North 3.5 mph - N/A   Unknown
2:36 PM -14.8 °F -24.8 °F -16.6 °F 92% 29.55 in 10.0 mi NNW 3.5 mph - N/A   Unknown
2:56 PM -14.8 °F -27.2 °F -20.2 °F 77% 29.54 in 10.0 mi NNW 4.6 mph - N/A   Unknown
3:16 PM -13.0 °F -25.1 °F -18.4 °F 77% 29.54 in 10.0 mi North 4.6 mph - N/A   Unknown
3:36 PM -13.0 °F -28.6 °F -16.6 °F 84% 29.53 in 10.0 mi NNW 6.9 mph - N/A   Unknown
3:56 PM -14.8 °F -27.2 °F -22.0 °F 70% 29.52 in 10.0 mi North 4.6 mph - N/A   Unknown
4:16 PM -14.8 °F -27.2 °F -22.0 °F 70% 29.51 in 10.0 mi North 4.6 mph - N/A   Unknown
4:36 PM -14.8 °F -24.8 °F -18.4 °F 84% 29.51 in 10.0 mi North 3.5 mph - N/A   Unknown
4:56 PM -14.8 °F -24.8 °F -20.2 °F 77% 29.50 in 10.0 mi NNW 3.5 mph - N/A   Unknown
5:16 PM -14.8 °F -27.2 °F -18.4 °F 84% 29.49 in 10.0 mi NW 4.6 mph - N/A   Unknown
5:36 PM -14.8 °F -24.8 °F -20.2 °F 77% 29.49 in 10.0 mi NW 3.5 mph - N/A   Unknown
5:56 PM -14.8 °F -27.2 °F -22.0 °F 70% 29.49 in 10.0 mi NNW 4.6 mph - N/A   Unknown
6:16 PM -14.8 °F -24.8 °F -18.4 °F 84% 29.48 in 10.0 mi North 3.5 mph - N/A   Unknown
6:36 PM - - - N/A% 29.48 in 10.0 mi Calm Calm - N/A   Unknown
6:56 PM - - - N/A% 29.48 in 10.0 mi Calm Calm - N/A   Unknown
7:16 PM -14.8 °F - -23.8 °F 64% 29.48 in 10.0 mi Calm Calm - N/A   Unknown
7:36 PM -14.8 °F - -16.6 °F 92% 29.48 in 10.0 mi Calm Calm - N/A   Unknown
7:56 PM -14.8 °F - -23.8 °F 64% 29.48 in 10.0 mi Calm Calm - N/A   Unknown
8:16 PM -14.8 °F - -16.6 °F 92% 29.48 in 10.0 mi Calm Calm - N/A   Unknown
8:36 PM -14.8 °F - -23.8 °F 64% 29.47 in 10.0 mi Calm Calm - N/A   Unknown
8:56 PM -14.8 °F - -16.6 °F 92% 29.47 in 10.0 mi Calm Calm - N/A   Unknown
9:16 PM -14.8 °F - -22.0 °F 70% 29.47 in 10.0 mi Calm Calm - N/A   Unknown
9:36 PM -14.8 °F - -22.0 °F 70% 29.47 in 10.0 mi Calm Calm - N/A   Unknown
9:56 PM -14.8 °F - -18.4 °F 84% 29.47 in 10.0 mi Calm Calm - N/A   Unknown
10:16 PM -13.0 °F -22.7 °F -16.6 °F 84% 29.47 in 10.0 mi North 3.5 mph - N/A   Unknown
10:36 PM -13.0 °F -25.1 °F -20.2 °F 70% 29.47 in 10.0 mi North 4.6 mph - N/A   Unknown
10:56 PM -13.0 °F -22.7 °F -18.4 °F 77% 29.47 in 10.0 mi North 3.5 mph - N/A   Unknown
11:16 PM -11.2 °F -23.0 °F -18.4 °F 70% 29.47 in 10.0 mi North 4.6 mph - N/A   Unknown
11:36 PM -11.2 °F -23.0 °F -18.4 °F 70% 29.46 in 10.0 mi North 4.6 mph - N/A   Unknown
11:56 PM -11.2 °F -23.0 °F -20.2 °F 64% 29.47 in 10.0 mi NNW 4.6 mph - N/A   Unknown